Texarkana, AR

10:22 PM CDT on March 26, 2017 (GMT -0500)
Texarkana Regional-Webb

Weather History for KTXK - April, 2014

Change the Weather History Date:

Thursday, April 24, 2014

  Actual Average Record
Temperature  
Mean Temperature 70 °F 66 °F  
Max Temperature 81 °F 77 °F 95 °F (1965)
Min Temperature 58 °F 55 °F 38 °F (1903)
Degree Days  
Heating Degree Days 0 2  
Month to date heating degree days 133 99  
Since 1 July heating degree days 2995 2593  
Cooling Degree Days 5 3  
Month to date cooling degree days 48 53  
Year to date cooling degree days 55 76  
Growing Degree Days 19 (Base 50)    
Moisture  
Dew Point 56 °F    
Average Humidity 60    
Maximum Humidity 84    
Minimum Humidity 36    
Precipitation  
Precipitation T in 0.14 in 3.43 in (1964)
Month to date precipitation 2.29 3.04  
Year to date precipitation 9.52 14.63  
Snow  
Snow 0.00 in - - ()
Month to date snowfall 0.0  
Since 1 July snowfall 1.7  
Snow Depth 0.00 in    
Sea Level Pressure  
Sea Level Pressure 29.82 in    
Wind  
Wind Speed 10 mph (SSW)    
Max Wind Speed 25 mph    
Max Gust Speed 33 mph    
Visibility 10 miles    
Events Rain    
T = Trace of Precipitation, MM = Missing Value Source: NWS Daily Summary

Daily Weather History Graph

Daily Weather History Graph

Search for Another Location

Airport or City:

Trip Planner

Search our weather history database for the weather conditions in past years. The results will help you decide how hot, cold, wet, or windy it might be!

Date:

Astronomy

Apr. 24, 2014 Rise Set
Actual Time 6:35 AM CDT 7:53 PM CDT
Civil Twilight 6:09 AM CDT 8:19 PM CDT
Nautical Twilight 5:38 AM CDT 8:50 PM CDT
Astronomical Twilight 5:05 AM CDT 9:23 PM CDT
Moon 3:31 AM CDT (4/24) 3:23 PM CDT (4/24)
Length of Visible Light 14h 10m
Length of Day
13h 18m
Waning Crescent, 24% of the Moon is Illuminated
Apr 24
Waning Crescent
Apr 29
New
May 6
First Quarter
May 14
Full
May 21
Last Quarter

Hourly Weather History & Observations

Time (CDT) Temp. Heat Index Dew Point Humidity Pressure Visibility Wind Dir Wind Speed Gust Speed Precip Events Conditions
12:53 AM 66.9 °F - 50.0 °F 54% 29.84 in 10.0 mi SSE 8.1 mph - N/A   Clear
1:53 AM 66.0 °F - 48.0 °F 52% 29.84 in 10.0 mi SSE 8.1 mph - N/A   Partly Cloudy
2:53 AM 64.0 °F - 48.9 °F 58% 29.84 in 10.0 mi SE 5.8 mph - N/A   Partly Cloudy
3:53 AM 62.1 °F - 50.0 °F 65% 29.83 in 10.0 mi SE 8.1 mph - N/A   Clear
4:53 AM 62.1 °F - 53.1 °F 72% 29.82 in 10.0 mi SE 6.9 mph - N/A   Clear
5:53 AM 62.1 °F - 53.1 °F 72% 29.81 in 10.0 mi SE 8.1 mph - 0.00 in Rain Light Rain
6:53 AM 57.9 °F - 55.0 °F 90% 29.85 in 9.0 mi Calm Calm - 0.00 in   Clear
7:53 AM 63.0 °F - 57.0 °F 81% 29.84 in 9.0 mi SE 5.8 mph - N/A   Partly Cloudy
8:01 AM 64.4 °F - 57.2 °F 77% 29.85 in 9.0 mi SSE 6.9 mph - N/A   Mostly Cloudy
8:53 AM 66.0 °F - 61.0 °F 84% 29.82 in 7.0 mi South 12.7 mph 19.6 mph N/A   Mostly Cloudy
9:05 AM 68.0 °F - 62.6 °F 83% 29.84 in 8.0 mi South 11.5 mph - N/A   Mostly Cloudy
9:53 AM 69.1 °F - 62.1 °F 78% 29.84 in 9.0 mi SSW 13.8 mph - N/A   Overcast
10:53 AM 72.0 °F - 63.0 °F 73% 29.83 in 10.0 mi South 13.8 mph - N/A   Overcast
11:53 AM 72.0 °F - 63.0 °F 73% 29.80 in 10.0 mi South 13.8 mph 19.6 mph N/A   Overcast
12:53 PM 73.0 °F - 63.0 °F 71% 29.80 in 10.0 mi South 10.4 mph - N/A   Overcast
1:53 PM 72.0 °F - 63.0 °F 73% 29.79 in 10.0 mi SSW 6.9 mph - N/A   Overcast
2:53 PM 75.9 °F - 64.9 °F 69% 29.77 in 10.0 mi South 12.7 mph - 0.00 in   Mostly Cloudy
3:53 PM 80.1 °F 81.5 °F 63.0 °F 56% 29.73 in 10.0 mi SW 12.7 mph 23.0 mph N/A   Scattered Clouds
4:53 PM 81.0 °F 81.7 °F 61.0 °F 50% 29.72 in 10.0 mi SW 18.4 mph - N/A   Clear
5:53 PM 81.0 °F 81.3 °F 59.0 °F 47% 29.73 in 10.0 mi WSW 20.7 mph 27.6 mph N/A   Scattered Clouds
6:53 PM 80.1 °F - 52.0 °F 38% 29.75 in 10.0 mi West 20.7 mph 29.9 mph N/A   Clear
7:53 PM 75.9 °F - 53.1 °F 45% 29.79 in 10.0 mi West 11.5 mph - N/A   Scattered Clouds
8:53 PM 73.0 °F - 51.1 °F 46% 29.83 in 10.0 mi West 9.2 mph - N/A   Scattered Clouds
9:53 PM 69.1 °F - 51.1 °F 53% 29.87 in 10.0 mi WNW 5.8 mph - N/A   Clear
10:53 PM 66.9 °F - 50.0 °F 54% 29.89 in 10.0 mi NW 4.6 mph - N/A   Clear
11:53 PM 66.0 °F - 45.0 °F 47% 29.91 in 10.0 mi North 10.4 mph - N/A   Clear